This is the latest recevied weather packets stored in our database for station/object G4MHJ-1. If no packets are shown the sender has not sent any weather packets the latest 10 day(s).
| Time | Temp. | Humidity | Pressure | Rain* | Wind** | Luminosity | Snow |
|---|---|---|---|---|---|---|---|
| 1778080904 | 12.78° C | 66% | 1012.7 hPa | 0 mm | - | 16 W/m² | - |
| 1778077304 | 12.78° C | 68% | 1012.7 hPa | 0 mm | - | 162 W/m² | - |
| 1778073703 | 12.78° C | 68% | 1012.9 hPa | 0 mm | - | 367 W/m² | - |
| 1778070104 | 12.22° C | 68% | 1012.8 hPa | 0 mm | - | 109 W/m² | - |
| 1778066504 | 12.22° C | 67% | 1012.8 hPa | 0 mm | - | 211 W/m² | - |
| 1778062904 | 12.22° C | 67% | 1012.8 hPa | 0 mm | - | 155 W/m² | - |
| 1778059304 | 10.56° C | 73% | 1012.9 hPa | 0 mm | - | 202 W/m² | - |
| 1778055704 | 10.56° C | 76% | 1012.5 hPa | 0 mm | - | 67 W/m² | - |
| 1778052103 | 8.89° C | 83% | 1012.7 hPa | 0 mm | - | 102 W/m² | - |
| 1778048504 | 7.78° C | 85% | 1012.5 hPa | 0 mm | - | 51 W/m² | - |
| 1778044903 | 8.33° C | 85% | 1012.3 hPa | 0 mm | - | 26 W/m² | - |
| 1778041303 | 8.33° C | 84% | 1012.2 hPa | 0 mm | - | 0 W/m² | - |
| 1778037704 | 8.89° C | 82% | 1012.1 hPa | 0 mm | - | 0 W/m² | - |
| 1778034098 | 9.44° C | 86% | 1012.4 hPa | 0 mm | - | 0 W/m² | - |
| 1778030497 | 9.44° C | 84% | 1012.6 hPa | 0 mm | - | 0 W/m² | - |
| 1778026896 | 10° C | 83% | 1012.8 hPa | 0 mm | - | 0 W/m² | - |
| 1778023295 | 10.56° C | 82% | 1012.8 hPa | 0 mm | - | 0 W/m² | - |
| 1778019694 | 11.11° C | 84% | 1012.8 hPa | 0 mm | - | 0 W/m² | - |
| 1778016093 | 11.67° C | 77% | 1012.7 hPa | 0 mm | - | 0 W/m² | - |
| 1778012491 | 12.22° C | 74% | 1012.4 hPa | 0 mm | - | 0 W/m² | - |
| 1778008889 | 12.78° C | 74% | 1011.6 hPa | 0 mm | - | 0 W/m² | - |
| 1778005290 | 13.89° C | 69% | 1011.2 hPa | 0 mm | - | 7 W/m² | - |
| 1778001688 | 13.89° C | 65% | 1011.3 hPa | 0 mm | - | 74 W/m² | - |
| 1777998090 | 15° C | 60% | 1011.4 hPa | 0 mm | - | 116 W/m² | - |
| 1777994488 | 16.67° C | 54% | 1011.4 hPa | 0 mm | - | 366 W/m² | - |
* Rain latest hour (hover to see other rain measurements)
** Current wind speed in m/s (hover to see current wind gust speed)